Theta_e
320 320 320 320 320 318 318 318 320 320 319 318 319 319 318 318 318 318 317 316 316 316
319 319 320 320 321 320 320 319 319 320 320 319 319 319 318 318 318 318 318 318 317 317
320 321 321 321 320 321 321 320 319 319 320 320 319 319 318 318 318 318 319 319 318 318
306 313 319 322 322 322 323 322 320 320 319 319 319 319 318 318 318 317 318 319 319 318
301 303 308 313 319 323 323 323 322 321 320 320 320 320 319 318 318 317 317 319 319 319
297 299 301 304 308 316 320 323 323 321 321 320 320 320 320 319 319 319 319 320 319 319
295 296 298 300 303 306 311 317 320 323 322 322 321 321 321 320 320 320 320 321 320 321
293 294 295 297 299 302 305 309 314 318 320 321 321 321 320 320 321 321 320 320 321 321
291 291 291 292 294 296 299 303 307 311 316 318 318 310 306 314 320 318 318 318 318 318
289 289 289 290 291 292 294 298 300 305 310 314 318 306 304 302 318 319 318 316 316 312
286 287 287 289 289 291 293 294 297 299 304 308 312 305 302 299 310 316 315 314 314 310
285 285 286 287 289 289 290 291 292 293 295 298 303 302 299 300 308 307 307 306 305 305
285 286 286 287 288 289 289 289 290 290 292 292 295 299 298 299 304 300 296 291 294 293
284 285 286 287 288 288 289 289 289 289 291 292 293 295 296 297 300 301 293 291 289 292
Wind_Speed
14 10 11 12 10 10 10 11 12 13 15 17 16 15 14 12 12 15 14 18 14 11
8 11 12 14 13 10 12 10 12 14 14 16 16 16 15 12 14 14 14 15 14 12
6 8 11 13 15 15 14 14 14 14 14 14 15 16 16 14 15 15 13 12 14 13
7 7 9 11 13 15 15 14 14 14 14 16 16 16 16 17 16 16 16 15 15 17
9 8 7 8 11 13 14 13 14 14 15 15 15 14 16 17 15 17 17 17 18 18
10 10 11 9 9 10 12 14 13 13 16 15 15 15 17 17 17 18 19 18 18 18
12 12 11 12 12 11 11 11 11 13 15 16 15 15 16 16 17 18 18 18 18 18
11 12 12 12 11 12 11 11 12 12 14 15 15 13 15 16 16 17 18 16 18 18
12 14 13 13 15 13 12 12 12 12 14 13 11 15 19 17 14 14 15 15 15 17
13 14 15 13 14 14 14 12 13 12 12 14 15 14 18 21 17 17 17 16 14 13
14 15 15 14 14 16 14 13 13 13 15 14 13 15 17 18 16 15 13 13 14 13
15 15 15 15 15 16 14 15 13 11 16 16 16 14 13 13 13 14 13 9 9 10
15 14 14 14 16 12 13 13 13 14 12 14 17 17 15 13 10 10 7 4 7 10
13 16 13 13 13 13 13 13 12 14 12 13 12 15 16 17 12 10 7 7 5 5
Wind_Direction
235 236 239 240 240 238 233 230 228 222 220 226 225 221 220 221 222 220 220 226 221 222
238 239 243 244 243 240 240 234 226 224 223 225 224 222 218 222 223 225 226 227 226 219
273 249 246 248 249 245 245 237 231 227 222 222 222 223 218 224 225 222 224 225 223 217
306 282 279 266 256 251 250 242 236 231 226 224 221 220 223 226 224 223 225 223 222 221
307 298 287 275 272 269 253 243 235 230 231 232 229 224 222 227 224 224 226 225 224 222
326 325 311 296 292 286 272 260 244 231 232 231 228 221 223 226 228 228 229 229 227 223
338 331 321 312 305 297 289 279 262 247 240 239 234 229 226 222 225 232 233 228 227 221
337 332 328 325 318 312 300 288 280 263 256 245 238 233 230 227 230 234 239 234 230 224
352 330 336 334 326 316 307 296 283 273 264 246 239 234 221 219 228 230 240 240 238 226
338 335 329 333 326 319 310 305 295 283 270 262 251 226 226 223 232 234 231 232 236 233
337 333 329 332 331 321 313 307 306 300 289 277 267 249 234 231 237 244 242 228 232 227
333 329 329 326 325 318 313 312 309 303 298 290 281 271 247 228 238 240 238 227 205 204
326 321 319 317 320 310 306 306 306 299 291 285 284 280 255 236 239 231 224 213 191 203
317 319 312 309 309 309 310 307 303 294 293 284 275 281 270 250 242 235 210 195 183 195